Weather History for Volk, WI

Change the Weather History Date:

Thursday, January 26, 2012

  Actual Average Record
Temperature  
Mean Temperature 30 °F -  
Max Temperature 35 °F 23 °F 24 °F (2015)
Min Temperature 26 °F 12 °F 0 °F (2014)
Degree Days  
Heating Degree Days 34    
Moisture  
Dew Point 30 °F    
Average Humidity 97    
Maximum Humidity 100    
Minimum Humidity 75    
Precipitation  
Precipitation 0.02 in - - ()
Snow  
Snow 0.00 in - - ()
Snow Depth 4.00 in    
Sea Level Pressure  
Sea Level Pressure 29.80 in    
Wind  
Wind Speed 7 mph (SSW)    
Max Wind Speed 15 mph    
Max Gust Speed -    
Visibility 6 miles    
Events Fog    
Averages and records for this station are not official NWS values.
T = Trace of Precipitation, MM = Missing Value Source: NWS Daily Summary

Daily Weather History Graph

Daily Weather History Graph

Search for Another Location

Airport:

Trip Planner

Search our weather history database for the weather conditions in past years. The results will help you decide how hot, cold, wet, or windy it might be!

Date:

Astronomy

Jan. 26, 2012 Rise Set
Actual Time 7:24 AM CST 5:02 PM CST
Civil Twilight 6:53 AM CST 5:33 PM CST
Nautical Twilight 6:18 AM CST 6:08 PM CST
Astronomical Twilight 5:44 AM CST 6:42 PM CST
Moon 8:43 AM CST (1/26) 9:05 PM CST (1/26)
Length of Visible Light 10h 40m
Length of Day
9h 37m
Waxing Crescent, 12% of the Moon is Illuminated
Jan 26
Waxing Crescent
Jan 30
First Quarter
Feb 7
Full
Feb 14
Last Quarter
Feb 21
New

Hourly Weather History & Observations

Time (CST) Temp. Windchill Dew Point Humidity Pressure Visibility Wind Dir Wind Speed Gust Speed Precip Events Conditions
12:55 AM 27.3 °F 18.4 °F 25.7 °F 94% 29.97 in 10.0 mi SSE 9.2 mph - N/A   Partly Cloudy
1:55 AM 27.5 °F 20.2 °F 26.8 °F 97% 29.95 in 10.0 mi SSE 6.9 mph - N/A   Mostly Cloudy
2:55 AM 27.5 °F 20.2 °F 27.3 °F 99% 29.94 in 10.0 mi South 6.9 mph - N/A   Mostly Cloudy
3:33 AM 26.6 °F 21.2 °F 26.6 °F 100% 29.92 in 8.0 mi South 4.6 mph - N/A   Overcast
3:46 AM 28.4 °F 23.3 °F 26.6 °F 93% 29.92 in 8.0 mi South 4.6 mph - N/A   Overcast
3:55 AM 27.7 °F 19.6 °F 27.5 °F 99% 29.91 in 8.0 mi SSE 8.1 mph - N/A   Overcast
4:12 AM 28.4 °F 22.2 °F 28.4 °F 100% 29.92 in 8.0 mi South 5.8 mph - N/A   Overcast
4:37 AM 28.4 °F 21.2 °F 28.4 °F 100% 29.90 in 7.0 mi South 6.9 mph - N/A   Overcast
4:55 AM 28.6 °F 22.4 °F 28.4 °F 99% 29.90 in 6.0 mi SSE 5.8 mph - N/A   Overcast
5:27 AM 28.4 °F 21.2 °F 28.4 °F 100% 29.88 in 5.0 mi SSE 6.9 mph - N/A   Overcast
5:43 AM 28.4 °F 22.2 °F 28.4 °F 100% 29.88 in 4.0 mi South 5.8 mph - N/A   Overcast
5:55 AM 28.9 °F 23.9 °F 28.9 °F 100% 29.88 in 4.0 mi South 4.6 mph - N/A   Overcast
6:16 AM 28.4 °F 24.6 °F 28.4 °F 100% 29.87 in 2.5 mi SE 3.5 mph - N/A   Overcast
6:21 AM 28.4 °F 24.6 °F 28.4 °F 100% 29.87 in 2.0 mi SE 3.5 mph - N/A   Overcast
6:27 AM 28.4 °F 22.2 °F 28.4 °F 100% 29.86 in 1.8 mi SE 5.8 mph - N/A   Overcast
6:35 AM 28.4 °F 23.3 °F 28.4 °F 100% 29.86 in 1.5 mi SE 4.6 mph - N/A   Overcast
6:52 AM 28.4 °F 23.3 °F 28.4 °F 100% 29.85 in 1.2 mi SSE 4.6 mph - N/A   Overcast
6:55 AM 28.4 °F 23.3 °F 28.4 °F 100% 29.85 in 1.2 mi SSE 4.6 mph - N/A   Overcast
7:30 AM 30.2 °F 25.4 °F 30.2 °F 100% 29.79 in 0.5 mi SE 4.6 mph - N/A Fog Light Freezing Fog
7:55 AM 30.2 °F 24.3 °F 30.2 °F 100% 29.82 in 0.5 mi South 5.8 mph - N/A Fog Light Freezing Fog
8:05 AM 30.2 °F 25.4 °F 30.2 °F 100% 29.79 in 0.8 mi South 4.6 mph - N/A   Overcast
8:33 AM 30.2 °F 25.4 °F 30.2 °F 100% 29.79 in 1.0 mi SSW 4.6 mph - N/A   Mist
8:41 AM 30.2 °F 25.4 °F 30.2 °F 100% 29.79 in 1.5 mi SSE 4.6 mph - N/A   Overcast
8:55 AM 30.2 °F 23.4 °F 30.2 °F 100% 29.82 in 3.0 mi Variable 6.9 mph - N/A   Overcast
9:55 AM 32.0 °F 25.6 °F 32.0 °F 100% 29.84 in 5.0 mi SSW 6.9 mph - N/A   Overcast
10:55 AM 32.0 °F 26.4 °F 32.0 °F 100% 29.84 in 4.0 mi SSW 5.8 mph - N/A   Overcast
11:12 AM 32.0 °F 25.6 °F 32.0 °F 100% 29.78 in 9.0 mi South 6.9 mph - N/A   Overcast
11:55 AM 33.8 °F 27.7 °F 33.8 °F 100% 29.75 in 7.0 mi SW 6.9 mph - N/A   Overcast
12:39 PM 33.8 °F 27.7 °F 33.8 °F 100% 29.72 in 7.0 mi SSW 6.9 mph - N/A   Overcast
12:55 PM 33.8 °F 29.6 °F 33.8 °F 100% 29.72 in 7.0 mi WSW 4.6 mph - N/A   Overcast
1:55 PM 33.8 °F 28.6 °F 33.8 °F 100% 29.70 in 7.0 mi SSW 5.8 mph - N/A   Overcast
2:55 PM 33.8 °F 27.0 °F 33.8 °F 100% 29.70 in 4.0 mi SSW 8.1 mph - N/A   Overcast
3:37 PM 33.8 °F 26.4 °F 33.8 °F 100% 29.71 in 8.0 mi SW 9.2 mph - N/A   Overcast
3:55 PM 34.2 °F 26.2 °F 34.0 °F 99% 29.70 in 8.0 mi SW 10.4 mph - 0.02 in   Overcast
4:55 PM 33.8 °F 29.6 °F 33.8 °F 100% 29.70 in 6.0 mi WSW 4.6 mph - N/A   Overcast
5:36 PM 32.0 °F 26.4 °F 32.0 °F 100% 29.65 in 4.0 mi West 5.8 mph - N/A   Scattered Clouds
5:55 PM 33.8 °F 29.6 °F 33.8 °F 100% 29.69 in 4.0 mi West 4.6 mph - N/A   Scattered Clouds
6:55 PM 30.2 °F 22.6 °F 30.2 °F 100% 29.68 in 3.0 mi West 8.1 mph - N/A   Clear
7:55 PM 32.0 °F 26.4 °F 32.0 °F 100% 29.69 in 10.0 mi WNW 5.8 mph - N/A   Scattered Clouds
8:47 PM 33.8 °F 26.4 °F 32.0 °F 93% 29.65 in 10.0 mi WNW 9.2 mph - N/A   Mostly Cloudy
8:55 PM 33.8 °F 26.4 °F 32.0 °F 93% 29.69 in 10.0 mi WNW 9.2 mph - N/A   Overcast
9:55 PM 35.6 °F 26.6 °F 28.4 °F 75% 29.70 in 10.0 mi NW 13.8 mph - N/A   Overcast
10:55 PM 33.8 °F 24.8 °F 28.4 °F 81% 29.72 in 10.0 mi NW 12.7 mph - N/A   Overcast
11:48 PM 33.8 °F 24.8 °F 26.6 °F 75% 29.72 in 10.0 mi NW 12.7 mph - N/A   Overcast
11:52 PM 32.0 °F 22.1 °F 24.8 °F 75% 29.73 in 10.0 mi NW 13.8 mph - N/A   Overcast
11:55 PM 32.5 °F 22.3 °F 25.7 °F 76% 29.73 in 10.0 mi NW 15.0 mph - N/A   Overcast